Beatrice, NE

5:58 PM CDT on October 16, 2017 (GMT -0500)
Beatrice Municipal

Weather History for KBIE - March, 2014

Change the Weather History Date:

Wednesday, March 12, 2014

  Actual Average Record
Temperature  
Mean Temperature 40 °F -  
Max Temperature 56 °F 53 °F 85 °F (1972)
Min Temperature 25 °F 27 °F -13 °F (1998)
Degree Days  
Heating Degree Days 24    
Moisture  
Dew Point 25 °F    
Average Humidity 62    
Maximum Humidity 93    
Minimum Humidity 22    
Precipitation  
Precipitation 0.00 in - - ()
Sea Level Pressure  
Sea Level Pressure 30.14 in    
Wind  
Wind Speed 12 mph (NW)    
Max Wind Speed 26 mph    
Max Gust Speed 34 mph    
Visibility 10 miles    
Events      
Averages and records for this station are not official NWS values.
T = Trace of Precipitation, MM = Missing Value Source: NWS Daily Summary

Daily Weather History Graph

Daily Weather History Graph

Search for Another Location

Airport or City:

Trip Planner

Search our weather history database for the weather conditions in past years. The results will help you decide how hot, cold, wet, or windy it might be!

Date:

Astronomy

Mar. 12, 2014 Rise Set
Actual Time 7:43 AM CDT 7:30 PM CDT
Civil Twilight 7:16 AM CDT 7:57 PM CDT
Nautical Twilight 6:44 AM CDT 8:29 PM CDT
Astronomical Twilight 6:12 AM CDT 9:01 PM CDT
Moon 4:02 PM CDT (3/12) 5:16 AM CDT (3/12)
Length of Visible Light 12h 41m
Length of Day
11h 47m
Waxing Gibbous, 85% of the Moon is Illuminated
Mar 12
Waxing Gibbous
Mar 16
Full
Mar 23
Last Quarter
Mar 30
New
Apr 7
First Quarter

Hourly Weather History & Observations

Time (CDT) Temp. Windchill Dew Point Humidity Pressure Visibility Wind Dir Wind Speed Gust Speed Precip Events Conditions
12:15 AM 37.0 °F 27.4 °F 31.5 °F 80% 30.11 in 10.0 mi North 17.3 mph 25.3 mph N/A   Scattered Clouds
12:35 AM 36.0 °F 26.3 °F 30.6 °F 81% 30.11 in 10.0 mi NNW 16.1 mph - N/A   Clear
12:55 AM 34.3 °F 24.6 °F 30.0 °F 84% 30.11 in 10.0 mi NNW 15.0 mph - N/A   Clear
1:15 AM 33.3 °F 24.1 °F 29.8 °F 87% 30.12 in 10.0 mi NNW 12.7 mph - N/A   Clear
1:35 AM 33.8 °F 23.9 °F 30.2 °F 87% 30.13 in 10.0 mi NNW 15.0 mph - N/A   Clear
1:55 AM 33.1 °F 24.4 °F 30.0 °F 89% 30.14 in 10.0 mi NNW 11.5 mph - N/A   Clear
2:15 AM 32.2 °F 23.2 °F 29.7 °F 90% 30.15 in 10.0 mi NNW 11.5 mph - N/A   Clear
2:35 AM 32.4 °F 22.5 °F 29.7 °F 90% 30.15 in 10.0 mi NNW 13.8 mph - N/A   Clear
2:55 AM 32.2 °F 23.8 °F 29.5 °F 90% 30.16 in 10.0 mi NNW 10.4 mph - N/A   Scattered Clouds
3:15 AM 31.5 °F 22.3 °F 28.8 °F 90% 30.16 in 10.0 mi NNW 11.5 mph - N/A   Scattered Clouds
3:35 AM 30.6 °F 23.1 °F 27.7 °F 89% 30.16 in 10.0 mi NW 8.1 mph - N/A   Clear
3:55 AM 28.8 °F 20.2 °F 26.4 °F 91% 30.16 in 10.0 mi NW 9.2 mph - N/A   Clear
4:15 AM 27.5 °F 19.3 °F 25.7 °F 93% 30.16 in 10.0 mi NW 8.1 mph - N/A   Clear
4:35 AM 27.9 °F 19.8 °F 25.7 °F 92% 30.16 in 10.0 mi NW 8.1 mph - N/A   Clear
4:55 AM 28.0 °F 20.0 °F 25.7 °F 91% 30.17 in 10.0 mi NW 8.1 mph - N/A   Clear
5:15 AM 26.6 °F 18.2 °F 24.6 °F 92% 30.17 in 10.0 mi NW 8.1 mph - N/A   Clear
5:35 AM 25.7 °F 18.0 °F 23.4 °F 91% 30.17 in 10.0 mi WNW 6.9 mph - N/A   Clear
5:55 AM 26.4 °F 19.8 °F 24.1 °F 91% 30.17 in 10.0 mi West 5.8 mph - N/A   Clear
6:15 AM 25.5 °F 18.7 °F 23.4 °F 92% 30.18 in 10.0 mi West 5.8 mph - N/A   Clear
6:35 AM 25.9 °F 17.4 °F 23.9 °F 92% 30.18 in 10.0 mi West 8.1 mph - N/A   Clear
6:55 AM 26.4 °F 19.8 °F 23.9 °F 90% 30.18 in 10.0 mi WNW 5.8 mph - N/A   Mostly Cloudy
7:15 AM 26.2 °F - 23.7 °F 90% 30.18 in 10.0 mi Calm Calm - N/A   Mostly Cloudy
7:35 AM 27.3 °F 20.9 °F 24.8 °F 90% 30.18 in 10.0 mi WNW 5.8 mph - N/A   Mostly Cloudy
7:55 AM 28.4 °F 21.2 °F 25.7 °F 90% 30.19 in 10.0 mi WNW 6.9 mph - N/A   Overcast
8:15 AM 28.9 °F 22.8 °F 26.1 °F 89% 30.20 in 10.0 mi WNW 5.8 mph - N/A   Overcast
8:35 AM 29.3 °F - 26.6 °F 90% 30.19 in 10.0 mi Calm Calm - N/A   Overcast
8:55 AM 30.2 °F 26.7 °F 27.5 °F 90% 30.20 in 10.0 mi West 3.5 mph - N/A   Mostly Cloudy
9:15 AM 32.0 °F 27.5 °F 28.9 °F 88% 30.20 in 10.0 mi West 4.6 mph - N/A   Overcast
9:35 AM 33.1 °F 26.1 °F 29.7 °F 87% 30.20 in 10.0 mi West 8.1 mph - N/A   Scattered Clouds
9:55 AM 34.7 °F 28.8 °F 30.2 °F 84% 30.20 in 10.0 mi West 6.9 mph - N/A   Clear
10:15 AM 36.0 °F 28.5 °F 30.9 °F 82% 30.20 in 10.0 mi WNW 10.4 mph - N/A   Clear
10:35 AM 38.3 °F 31.9 °F 31.8 °F 77% 30.20 in 10.0 mi WNW 9.2 mph - N/A   Clear
10:55 AM 39.7 °F 34.3 °F 31.6 °F 73% 30.20 in 10.0 mi West 8.1 mph - N/A   Clear
11:15 AM 42.1 °F 36.6 °F 31.6 °F 67% 30.19 in 10.0 mi NW 9.2 mph - N/A   Clear
11:35 AM 44.6 °F 38.1 °F 31.3 °F 60% 30.19 in 10.0 mi West 13.8 mph - N/A   Clear
11:55 AM 45.9 °F 40.0 °F 31.5 °F 57% 30.18 in 10.0 mi West 12.7 mph - N/A   Clear
12:15 PM 46.8 °F - 30.7 °F 54% 30.18 in 10.0 mi West 13.8 mph 19.6 mph N/A   Clear
12:35 PM 48.0 °F - 31.3 °F 52% 30.17 in 10.0 mi WNW 15.0 mph - N/A   Clear
1:15 PM 50.4 °F - 27.9 °F 42% 30.17 in 10.0 mi WNW 17.3 mph 28.8 mph N/A   Clear
1:35 PM 51.1 °F - 25.7 °F 37% 30.17 in 10.0 mi NW 20.7 mph - N/A   Scattered Clouds
1:55 PM 52.3 °F - 23.9 °F 33% 30.15 in 10.0 mi NW 21.9 mph - N/A   Scattered Clouds
2:15 PM 53.6 °F - 23.9 °F 32% 30.14 in 10.0 mi WNW 24.2 mph 29.9 mph N/A   Clear
2:35 PM 54.3 °F - 21.4 °F 28% 30.13 in 10.0 mi NNW 24.2 mph 33.4 mph N/A   Scattered Clouds
2:55 PM 55.8 °F - 21.0 °F 26% 30.12 in 10.0 mi NNW 25.3 mph 34.5 mph N/A   Scattered Clouds
3:15 PM 54.7 °F - 20.5 °F 26% 30.12 in 10.0 mi NNW 26.5 mph 32.2 mph N/A   Scattered Clouds
3:35 PM 55.8 °F - 20.8 °F 26% 30.12 in 10.0 mi NNW 21.9 mph 31.1 mph N/A   Scattered Clouds
3:55 PM 55.4 °F - 19.4 °F 25% 30.11 in 10.0 mi NW 20.7 mph 28.8 mph N/A   Scattered Clouds
4:15 PM 56.7 °F - 19.6 °F 24% 30.11 in 10.0 mi NW 17.3 mph 28.8 mph N/A   Clear
4:35 PM 55.9 °F - 19.2 °F 24% 30.10 in 10.0 mi NW 18.4 mph 28.8 mph N/A   Clear
4:55 PM 56.3 °F - 18.1 °F 23% 30.10 in 10.0 mi NW 24.2 mph 27.6 mph N/A   Clear
5:15 PM 56.5 °F - 18.1 °F 22% 30.10 in 10.0 mi NNW 23.0 mph 29.9 mph N/A   Clear
5:35 PM 56.3 °F - 18.1 °F 23% 30.09 in 10.0 mi NW 17.3 mph 26.5 mph N/A   Clear
5:55 PM 56.3 °F - 19.2 °F 24% 30.09 in 10.0 mi NW 18.4 mph - N/A   Clear
6:15 PM 55.4 °F - 19.4 °F 25% 30.09 in 10.0 mi NW 17.3 mph 23.0 mph N/A   Clear
6:35 PM 54.9 °F - 20.1 °F 26% 30.09 in 10.0 mi NW 12.7 mph - N/A   Clear
6:55 PM 53.4 °F - 20.7 °F 28% 30.08 in 10.0 mi NW 10.4 mph - N/A   Clear
7:15 PM 50.9 °F - 20.3 °F 30% 30.08 in 10.0 mi NW 5.8 mph - N/A   Clear
7:35 PM 47.5 °F - 20.1 °F 34% 30.08 in 10.0 mi Calm Calm - N/A   Clear
7:55 PM 45.1 °F 43.7 °F 19.4 °F 36% 30.07 in 10.0 mi WSW 3.5 mph - N/A   Clear
8:15 PM 43.3 °F 41.7 °F 19.4 °F 38% 30.08 in 10.0 mi WSW 3.5 mph - N/A   Clear
8:35 PM 41.5 °F 39.6 °F 19.8 °F 42% 30.08 in 10.0 mi WSW 3.5 mph - N/A   Clear
8:55 PM 41.5 °F - 19.6 °F 41% 30.08 in 10.0 mi Calm Calm - N/A   Clear
9:15 PM 38.1 °F 34.6 °F 19.4 °F 47% 30.08 in 10.0 mi SSW 4.6 mph - N/A   Clear
9:35 PM 38.3 °F - 20.3 °F 48% 30.08 in 10.0 mi Calm Calm - N/A   Clear
9:55 PM 38.3 °F - 20.5 °F 49% 30.08 in 10.0 mi Calm Calm - N/A   Clear
10:15 PM 35.1 °F 30.1 °F 19.6 °F 53% 30.08 in 10.0 mi SSW 5.8 mph - N/A   Clear
10:35 PM 36.1 °F 33.5 °F 21.2 °F 55% 30.08 in 10.0 mi SW 3.5 mph - N/A   Clear
10:55 PM 36.7 °F - 20.8 °F 53% 30.08 in 10.0 mi Calm Calm - N/A   Clear
11:15 PM 34.7 °F - 20.5 °F 56% 30.07 in 10.0 mi Calm Calm - N/A   Clear
11:35 PM 32.7 °F - 19.6 °F 58% 30.07 in 10.0 mi Calm Calm - N/A   Clear
11:55 PM 30.9 °F - 19.4 °F 62% 30.07 in 10.0 mi Calm Calm - N/A   Clear